Voltar ao catálogo

FALCON 9 R/B

AtivoHEO
NORAD 47241·ROCKET BODY·🇺🇸 United States

Lançado Dec 13, 2020 de Cape Canaveral Space Force Station

Loading…

Próximas Passagens (próximas 24 horas)

TLE

AtualizadoSource: Space-Track

Época: Sep 14, 2026, 10:02 UTC

1 47241U 20096B   26257.41862600  .00012943  00000-0  81450-3 0  9994
2 47241  26.9661 299.5872 4394707 208.5578 118.0849  6.72850148112377

Acompanhe FALCON 9 R/B em tempo real com AllMySat

Download on the App Store